User: anonymous   Login
Location: *
(45.4590°N, 16.3650°E)
Time: 21:43:03
(UTC+00:00)
Language:

Cosmos 2154 Rocket - Orbit

View from above orbital plane
View from above orbital plane
View from above satellite
View from above satellite

Ground track
Ground track

The orbit data is extracted from the following two-line orbital elements,

1 21667U 91059B   20088.22198644  .00000022  00000-0  78531-5 0  9993
2 21667  82.9074 333.2462 0019866 306.9066 167.8904 13.75096274435198
Epoch (UTC): 28 March 2020 05:19:39
Eccentricity: 0.0019866
inclination: 82.9074°
perigee height: 967 km
apogee height: 996 km
right ascension of ascending node: 333.2462°
argument of perigee: 306.9066°
revolutions per day: 13.75096274
mean anomaly at epoch: 167.8904°
orbit number at epoch: 43519

The dashed part of the orbit path shows where the satellite is in the earth's shadow,  

DLR